Voltar ao catálogo

SL-16 DEB

AtivoLEO
NORAD 23410·DEBRIS·🇷🇺 Russia

Lançado Nov 24, 1994 de Baikonur Cosmodrome

Loading…

Próximas Passagens (próximas 24 horas)

TLE

AtualizadoSource: Space-Track

Época: Sep 14, 2026, 05:31 UTC

1 23410U 94077G   26257.23031602  .00000016  00000-0  57170-4 0  9997
2 23410  70.9814 353.5359 0221384   6.1975  17.4020 13.68725767587996

Acompanhe SL-16 DEB em tempo real com AllMySat

Download on the App Store